When you browse on this site, cookies collect data to enhance your experience and personalize the content and advertising you see.
Visit our Privacy Policy to learn more. By continuing to use the site, you agree to this use of cookies and data.
  • In Denmark
  • List of Countries
  • For 7 days
  • Water Temperature
  • Weather Map
  • Weather Widgets
  • user-avatar
    Login

    Hourly Weather Gloucester

    Today, 29 May, Friday

    Time Temperature Precipitation Wind Pressure Humidity
    00:00 +9°C° 0 mm 2 mps 767 mmHg 72%
    01:00 +8°C° 0 mm 2 mps 767 mmHg 73%
    02:00 +8°C° 0 mm 2 mps 766 mmHg 75%
    03:00 +7°C° 0 mm 2 mps 766 mmHg 77%
    04:00 +8°C° 0 mm 2 mps 766 mmHg 77%
    05:00 +9°C° 0 mm 2 mps 766 mmHg 78%
    06:00 +10°C° 0 mm 2 mps 766 mmHg 79%
    07:00 +13°C° 0 mm 2 mps 766 mmHg 75%
    08:00 +14°C° 0 mm 3 mps 766 mmHg 72%
    09:00 +17°C° 0 mm 3 mps 765 mmHg 69%
    10:00 +18°C° 0 mm 3 mps 765 mmHg 66%
    11:00 +19°C° 0 mm 4 mps 765 mmHg 63%
    12:00 +20°C° 0 mm 4 mps 765 mmHg 60%
    13:00 +21°C° 0 mm 4 mps 764 mmHg 61%
    14:00 +21°C° 0 mm 4 mps 764 mmHg 61%
    15:00 +21°C° 0 mm 4 mps 764 mmHg 62%
    16:00 +20°C° 0 mm 4 mps 763 mmHg 66%
    17:00 +20°C° 0 mm 3 mps 763 mmHg 70%
    18:00 +19°C° 0 mm 3 mps 763 mmHg 74%
    19:00 +17°C° 0 mm 3 mps 763 mmHg 77%
    20:00 +14°C° 0 mm 3 mps 763 mmHg 80%
    21:00 +12°C° 0 mm 3 mps 763 mmHg 82%
    22:00 +11°C° 0 mm 3 mps 763 mmHg 81%
    23:00 +10°C° 0 mm 2 mps 763 mmHg 79%

    Tomorrow, 30 May, Saturday

    Time Temperature Precipitation Wind Pressure Humidity
    00:00 +9°C° 0 mm 2 mps 763 mmHg 77%
    01:00 +8°C° 0 mm 2 mps 763 mmHg 78%
    02:00 +7°C° 0 mm 2 mps 763 mmHg 79%
    03:00 +6°C° 0 mm 2 mps 763 mmHg 80%
    04:00 +7°C° 0 mm 2 mps 763 mmHg 80%
    05:00 +8°C° 0 mm 2 mps 763 mmHg 80%
    06:00 +9°C° 0 mm 2 mps 763 mmHg 80%
    07:00 +12°C° 0 mm 2 mps 762 mmHg 77%
    08:00 +13°C° 0 mm 3 mps 762 mmHg 74%
    09:00 +16°C° 0 mm 3 mps 762 mmHg 72%
    10:00 +18°C° 0 mm 3 mps 762 mmHg 69%
    11:00 +19°C° 0 mm 3 mps 762 mmHg 66%
    12:00 +20°C° 0 mm 4 mps 762 mmHg 63%
    13:00 +21°C° 0 mm 4 mps 762 mmHg 63%
    14:00 +21°C° 0 mm 4 mps 761 mmHg 63%
    15:00 +21°C° 0 mm 4 mps 761 mmHg 63%
    16:00 +21°C° 0 mm 4 mps 761 mmHg 67%
    17:00 +20°C° 0 mm 4 mps 761 mmHg 71%
    18:00 +20°C° 0 mm 4 mps 761 mmHg 75%
    19:00 +18°C° 0 mm 4 mps 761 mmHg 77%
    20:00 +15°C° 0 mm 4 mps 761 mmHg 80%
    21:00 +13°C° 0 mm 4 mps 762 mmHg 82%
    22:00 +12°C° 0 mm 3 mps 762 mmHg 84%
    23:00 +11°C° 0 mm 3 mps 762 mmHg 86%

    Day after tomorrow, 31 May, Sunday

    Time Temperature Precipitation Wind Pressure Humidity
    00:00 +10°C° 0 mm 3 mps 762 mmHg 88%
    01:00 +9°C° 0 mm 3 mps 762 mmHg 90%
    02:00 +9°C° 0 mm 3 mps 762 mmHg 92%
    03:00 +8°C° 0 mm 2 mps 762 mmHg 93%
    04:00 +9°C° 0 mm 3 mps 762 mmHg 92%
    05:00 +9°C° 0 mm 3 mps 762 mmHg 90%
    06:00 +10°C° 0 mm 3 mps 762 mmHg 89%
    07:00 +12°C° 0 mm 3 mps 762 mmHg 83%
    08:00 +14°C° 0 mm 3 mps 762 mmHg 78%
    09:00 +18°C° 0 mm 3 mps 762 mmHg 73%
    10:00 +19°C° 0 mm 4 mps 762 mmHg 68%
    11:00 +20°C° 0 mm 4 mps 762 mmHg 63%
    12:00 +21°C° 0 mm 4 mps 762 mmHg 59%
    13:00 +21°C° 0 mm 4 mps 762 mmHg 59%
    14:00 +21°C° 0 mm 4 mps 762 mmHg 59%
    15:00 +21°C° 0 mm 4 mps 762 mmHg 59%
    16:00 +21°C° 0 mm 4 mps 762 mmHg 63%
    17:00 +20°C° 0 mm 3 mps 762 mmHg 68%
    18:00 +20°C° 0 mm 3 mps 762 mmHg 73%
    19:00 +18°C° 0 mm 3 mps 762 mmHg 77%
    20:00 +16°C° 0 mm 3 mps 762 mmHg 81%
    21:00 +13°C° 0 mm 3 mps 762 mmHg 84%
    22:00 +13°C° 0 mm 2 mps 762 mmHg 87%
    23:00 +12°C° 0 mm 2 mps 762 mmHg 89%

    1 June, Monday

    Time Temperature Precipitation Wind Pressure Humidity
    00:00 +10°C° 0 mm 2 mps 762 mmHg 92%
    01:00 +10°C° 0 mm 2 mps 762 mmHg 92%
    02:00 +9°C° 0 mm 2 mps 762 mmHg 92%
    03:00 +8°C° 0 mm 2 mps 762 mmHg 92%
    04:00 +9°C° 0 mm 2 mps 762 mmHg 90%
    05:00 +10°C° 0 mm 2 mps 762 mmHg 89%
    06:00 +10°C° 0 mm 2 mps 762 mmHg 87%
    07:00 +13°C° 0 mm 2 mps 762 mmHg 82%
    08:00 +14°C° 0 mm 3 mps 762 mmHg 76%
    09:00 +17°C° 0 mm 3 mps 762 mmHg 70%
    10:00 +18°C° 0 mm 3 mps 761 mmHg 66%
    11:00 +19°C° 0 mm 3 mps 761 mmHg 62%
    12:00 +20°C° 0 mm 3 mps 761 mmHg 58%
    13:00 +20°C° 0 mm 3 mps 761 mmHg 58%
    14:00 +20°C° 0 mm 3 mps 760 mmHg 58%
    15:00 +21°C° 0 mm 3 mps 760 mmHg 58%
    16:00 +20°C° 0 mm 3 mps 760 mmHg 63%
    17:00 +20°C° 0 mm 3 mps 759 mmHg 67%
    18:00 +20°C° 0 mm 2 mps 759 mmHg 72%
    19:00 +18°C° 0 mm 2 mps 759 mmHg 77%
    20:00 +16°C° 0 mm 2 mps 759 mmHg 82%
    21:00 +14°C° 0 mm 1 mps 759 mmHg 87%
    22:00 +13°C° 0 mm 1 mps 759 mmHg 89%
    23:00 +12°C° 0 mm 1 mps 759 mmHg 91%

    2 June, Tuesday

    Time Temperature Precipitation Wind Pressure Humidity
    00:00 +11°C° 0 mm 1 mps 759 mmHg 92%
    01:00 +11°C° 0 mm 1 mps 758 mmHg 93%
    02:00 +10°C° 0 mm 1 mps 758 mmHg 93%
    03:00 +9°C° 0 mm 1 mps 758 mmHg 93%
    04:00 +10°C° 0 mm 1 mps 757 mmHg 91%
    05:00 +11°C° 0 mm 1 mps 757 mmHg 90%
    06:00 +12°C° 0 mm 1 mps 757 mmHg 88%
    07:00 +13°C° 0 mm 2 mps 756 mmHg 81%
    08:00 +15°C° 0 mm 2 mps 756 mmHg 74%
    09:00 +17°C° 0 mm 2 mps 756 mmHg 68%
    10:00 +18°C° 0 mm 2 mps 756 mmHg 64%
    11:00 +19°C° 0 mm 2 mps 755 mmHg 60%
    12:00 +20°C° 0 mm 2 mps 755 mmHg 56%
    13:00 +20°C° 0 mm 2 mps 754 mmHg 56%
    14:00 +20°C° 0 mm 2 mps 754 mmHg 55%
    15:00 +22°C° 0 mm 1 mps 753 mmHg 54%
    16:00 +21°C° 0 mm 1 mps 753 mmHg 59%
    17:00 +21°C° 0 mm 1 mps 752 mmHg 65%
    18:00 +20°C° 0 mm 1 mps 752 mmHg 70%
    19:00 +18°C° 0 mm 2 mps 752 mmHg 72%
    20:00 +16°C° 0 mm 2 mps 752 mmHg 75%
    21:00 +14°C° 0 mm 3 mps 752 mmHg 77%
    22:00 +13°C° 0 mm 3 mps 751 mmHg 82%
    23:00 +12°C° 0 mm 3 mps 751 mmHg 86%

    3 June, Wednesday

    Time Temperature Precipitation Wind Pressure Humidity
    00:00 +11°C° 0 mm 3 mps 750 mmHg 90%
    01:00 +11°C° 0.1 mm 3 mps 750 mmHg 92%
    02:00 +12°C° 0.1 mm 3 mps 750 mmHg 94%
    03:00 +12°C° 0.1 mm 3 mps 749 mmHg 96%
    04:00 +12°C° 0.5 mm 3 mps 749 mmHg 96%
    05:00 +12°C° 0.5 mm 4 mps 749 mmHg 96%
    06:00 +13°C° 0.5 mm 4 mps 749 mmHg 96%
    07:00 +13°C° 0.3 mm 4 mps 749 mmHg 96%
    08:00 +14°C° 0.3 mm 5 mps 749 mmHg 95%
    09:00 +14°C° 0.3 mm 5 mps 749 mmHg 95%
    10:00 +16°C° 0.3 mm 5 mps 749 mmHg 90%
    11:00 +19°C° 0.3 mm 6 mps 749 mmHg 85%
    12:00 +20°C° 0.3 mm 7 mps 749 mmHg 80%
    13:00 +21°C° 0.5 mm 7 mps 749 mmHg 79%
    14:00 +21°C° 0.5 mm 7 mps 749 mmHg 78%
    15:00 +21°C° 0.5 mm 7 mps 749 mmHg 77%
    16:00 +21°C° 0.4 mm 7 mps 749 mmHg 79%
    17:00 +20°C° 0.4 mm 6 mps 749 mmHg 81%
    18:00 +20°C° 0.4 mm 6 mps 749 mmHg 83%
    19:00 +17°C° 0.1 mm 6 mps 749 mmHg 85%
    20:00 +16°C° 0.1 mm 6 mps 749 mmHg 87%
    21:00 +15°C° 0.1 mm 5 mps 750 mmHg 90%
    22:00 +14°C° 0 mm 5 mps 750 mmHg 91%
    23:00 +13°C° 0 mm 5 mps 750 mmHg 93%
    Show more